Theta_e
310 311 311 311 311 308 306 303 302 315 318 302 304 300 304 304 303 306 304 304 301 298 299 296 296 297 299 304 303 296 297 294 289 293 299 301 297 294 296 289 287 288 284 287
309 309 310 310 310 309 304 298 305 317 315 296 299 306 304 306 303 302 302 301 302 301 296 291 297 298 303 303 302 299 297 290 283 287 292 298 295 297 295 296 294 289 287 288
308 309 309 310 310 309 305 300 300 307 308 306 301 301 300 300 305 301 302 301 301 297 294 297 294 297 301 302 303 307 302 292 288 282 288 292 291 294 295 294 288 290 290 291
308 308 309 309 309 309 305 302 302 304 297 300 301 300 299 298 298 302 301 298 299 295 289 292 292 297 297 301 305 300 295 287 290 291 293 293 291 291 292 290 291 287 291 292
309 309 309 309 308 308 303 301 299 301 298 302 300 298 297 297 298 298 297 295 298 296 290 291 289 292 292 292 297 296 299 288 289 288 292 292 290 292 292 293 292 292 292 291
308 308 308 309 309 308 305 306 307 301 299 298 297 297 299 298 298 300 300 297 295 294 295 297 296 296 296 295 292 291 293 291 288 284 290 289 283 289 291 293 295 294 290 293
308 308 309 308 308 309 308 306 304 297 294 297 297 299 299 298 297 294 297 297 293 298 301 299 297 295 296 295 294 296 290 290 288 283 285 276 288 296 296 295 297 298 298 299
307 307 308 308 308 309 308 308 305 300 293 297 297 298 298 298 297 295 296 299 300 300 295 289 287 289 290 293 295 294 293 290 286 282 278 286 289 295 295 292 293 299 297 298
306 306 307 308 307 307 307 307 310 303 295 295 299 297 298 293 292 294 297 300 301 297 291 288 281 281 288 290 293 300 297 295 287 285 280 277 290 298 302 298 287 301 300 298
306 306 307 307 307 307 306 305 310 304 296 299 300 295 295 298 295 291 296 295 293 296 289 285 283 284 292 284 287 288 288 287 285 284 282 286 296 299 303 287 287 300 299 297
306 306 306 306 306 306 305 304 308 304 298 298 301 303 298 297 295 289 294 291 293 292 285 286 287 285 288 288 293 291 288 284 282 284 282 278 300 298 292 296 300 300 298 297
305 305 305 305 305 306 307 301 309 308 300 298 303 303 305 303 303 297 295 294 295 295 289 288 290 287 287 286 280 293 285 290 288 287 285 296 300 298 300 300 299 298 297 297
305 305 305 306 306 306 306 303 305 302 297 295 297 298 305 307 305 306 295 295 297 296 299 292 289 286 288 281 284 288 293 297 292 292 295 298 298 300 301 300 300 301 299 298
304 305 305 305 306 307 307 303 305 302 297 290 293 305 303 308 308 307 305 300 301 299 295 291 289 286 290 285 287 287 290 293 290 290 295 297 300 298 301 301 302 299 299 298
304 304 305 305 305 307 306 305 306 305 298 291 293 298 302 304 306 305 304 300 297 295 290 289 287 290 288 289 290 288 292 291 288 289 295 294 295 298 300 297 297 298 297 296
304 305 305 306 306 307 303 297 306 307 304 294 288 299 301 304 305 303 301 300 299 296 291 290 292 293 291 284 283 291 297 299 298 294 299 296 297 298 298 297 299 301 297 297
304 305 306 306 306 305 298 296 301 307 304 293 288 291 300 305 303 301 298 300 298 296 291 289 289 289 292 289 283 291 294 296 298 300 297 294 295 294 298 299 301 300 298 297
305 306 305 305 306 304 299 305 306 305 297 295 287 289 296 304 296 294 300 294 294 293 291 291 289 291 292 285 290 294 297 299 299 298 296 296 297 297 297 298 297 295 295 295
305 305 306 304 301 297 300 307 306 303 298 290 290 289 287 301 297 296 295 295 287 292 288 289 291 288 285 290 293 296 299 295 295 297 297 296 294 295 295 295 295 293 293 292
305 304 298 292 297 306 304 298 294 292 293 292 288 294 290 298 296 294 291 292 288 285 288 292 289 287 294 296 298 299 298 298 298 295 293 293 292 293 294 294 295 295 292 290
301 295 292 297 303 296 292 288 288 289 287 291 291 292 291 297 290 291 294 287 289 284 288 288 287 287 296 300 299 300 299 299 298 299 296 293 293 293 294 294 295 293 291 289
298 297 299 297 293 290 287 286 289 287 287 293 291 293 295 295 297 292 293 289 288 282 292 288 285 293 297 297 298 298 297 299 298 296 295 295 296 295 295 294 293 292 290 290
299 295 291 289 288 283 283 283 287 288 293 295 293 292 294 294 295 291 288 284 284 294 288 287 291 295 296 297 298 298 299 297 296 295 296 296 295 296 295 293 292 292 290 289
292 288 284 286 285 286 290 290 290 297 296 295 294 292 292 292 289 289 284 289 291 287 285 287 292 295 297 297 299 296 295 295 296 295 295 295 295 294 294 293 292 291 289 289
290 290 285 288 293 297 298 297 297 298 298 295 292 291 292 289 287 289 288 287 286 287 285 290 294 295 297 296 296 295 295 295 295 295 295 294 294 293 293 292 291 291 290 289
291 290 288 293 295 295 297 297 295 298 297 297 295 289 287 287 288 287 287 287 285 287 293 294 296 296 296 295 296 297 297 296 295 295 295 294 293 292 292 290 290 290 290 288
290 288 294 293 294 293 293 296 297 299 295 290 292 286 286 293 288 287 291 287 291 295 295 296 297 296 295 295 296 298 297 296 295 294 294 294 294 294 291 289 289 290 291 289
Wind_Speed
19 17 18 18 19 23 8 4 3 5 6 2 4 4 1 10 2 6 2 2 3 5 6 4 4 3 6 6 5 4 2 1 3 5 11 10 6 7 1 2 6 3 4 12
19 19 17 17 15 12 5 5 4 3 5 3 4 4 11 12 2 6 6 5 6 6 3 3 5 6 10 8 6 4 2 2 3 7 5 7 5 8 5 5 2 4 5 5
18 16 16 16 15 10 4 4 4 0 2 4 5 2 7 8 8 3 3 6 5 1 3 4 2 4 3 5 6 8 5 2 5 5 7 7 7 10 10 5 3 2 9 15
17 16 15 15 15 12 2 3 3 5 3 3 5 6 8 10 5 6 5 2 1 5 3 7 4 1 8 1 12 5 3 2 5 8 11 14 15 15 13 16 14 14 13 19
14 13 13 15 16 20 3 3 4 5 7 9 4 2 5 8 7 4 5 4 9 8 3 3 6 5 4 3 2 4 3 1 4 5 12 16 20 17 19 19 20 23 20 23
13 12 13 13 13 13 3 3 5 2 5 8 4 3 4 9 6 1 4 7 3 4 7 6 6 5 5 6 3 3 5 1 1 3 7 13 10 16 15 16 17 13 17 7
14 12 10 9 10 9 3 3 3 3 4 7 8 7 3 3 10 4 8 4 4 5 8 8 8 9 11 10 10 7 8 6 4 4 6 4 8 12 13 12 9 11 10 10
13 12 10 7 9 8 3 3 3 2 4 7 11 15 8 7 7 1 4 7 4 6 5 4 6 4 3 11 17 12 10 6 2 3 4 9 12 4 6 5 3 10 8 6
13 12 11 5 7 9 4 4 3 2 2 2 10 8 9 5 5 5 7 6 5 4 1 1 3 3 2 3 3 6 10 7 6 3 3 5 1 7 8 4 2 7 7 8
13 11 10 4 5 7 3 3 5 2 2 3 6 5 4 5 5 3 5 5 2 4 0 1 3 4 6 3 6 4 2 1 7 6 4 7 5 13 6 5 1 5 3 4
11 9 8 4 6 6 3 2 3 2 2 5 5 6 3 3 3 2 3 4 1 1 1 2 2 2 3 4 4 4 6 6 4 3 5 9 4 7 3 4 4 4 4 4
9 8 7 6 6 5 3 2 2 1 1 3 3 9 10 7 1 2 2 2 4 2 2 3 2 3 4 4 3 4 2 5 2 7 6 3 4 5 6 6 3 5 6 5
8 7 7 6 6 4 3 3 1 1 2 4 3 7 11 12 11 5 4 1 2 2 3 2 2 4 3 2 4 5 4 4 1 1 5 3 5 5 5 4 4 7 5 7
9 7 6 7 8 7 4 2 2 0 1 2 5 5 6 7 8 8 6 6 5 3 4 3 2 2 3 3 5 7 6 6 6 7 4 3 3 2 3 4 6 6 6 5
9 8 7 7 8 8 4 3 4 4 2 2 5 12 13 9 8 9 9 8 6 2 2 2 3 3 3 4 6 10 7 3 1 3 8 6 6 5 5 5 7 7 3 5
8 8 8 8 6 5 2 2 3 5 3 0 4 5 6 6 10 11 9 5 3 3 2 2 2 4 0 4 4 6 5 6 7 5 8 3 5 6 6 7 9 3 3 8
8 9 9 6 6 2 2 2 2 2 3 2 3 4 3 8 10 4 4 4 2 3 2 3 3 4 3 3 7 7 12 10 5 5 2 3 4 7 9 9 5 4 5 6
10 7 7 7 6 5 4 3 7 5 3 1 2 5 1 2 4 3 3 3 2 2 2 2 3 3 3 6 9 10 10 2 3 2 2 5 7 7 6 6 6 7 8 9
5 6 7 2 1 2 1 8 8 2 1 2 4 3 1 0 3 3 2 2 2 2 3 3 3 3 7 8 9 2 4 2 1 5 6 6 7 8 8 8 8 7 8 9
4 3 1 1 1 14 5 2 1 2 1 1 4 5 2 4 5 2 3 2 2 3 5 3 4 5 11 9 5 5 4 4 4 5 6 6 7 7 7 6 7 9 9 7
2 1 1 0 5 2 2 2 2 2 3 5 5 6 3 2 0 3 1 3 2 3 2 3 3 4 1 4 5 7 4 1 7 5 6 7 6 7 6 8 9 10 9 7
2 3 2 1 1 1 2 3 3 4 5 6 4 2 3 2 2 3 2 1 2 5 5 3 3 1 4 7 6 2 3 6 4 8 8 7 8 8 9 7 10 9 7 8
1 1 2 2 3 3 5 6 4 4 4 4 4 3 2 3 3 2 2 3 5 4 4 4 2 3 6 1 4 1 5 9 9 8 9 9 8 10 10 10 9 8 7 8
1 2 3 4 4 6 5 2 3 1 4 7 6 3 2 2 2 2 3 4 3 3 3 2 0 5 4 2 6 10 8 9 8 9 8 8 10 10 9 9 7 6 6 8
2 2 4 7 7 3 2 5 5 7 6 5 4 3 1 1 2 4 4 4 4 2 2 2 3 4 4 8 9 7 8 7 6 7 6 10 9 9 8 8 7 6 6 7
3 4 5 6 5 6 3 3 8 5 4 2 3 3 3 3 4 4 4 3 1 2 1 4 2 8 8 7 6 6 8 5 6 6 7 9 8 9 8 8 9 8 7 7
3 4 6 9 8 0 3 1 3 4 2 2 1 3 4 2 3 3 1 2 3 3 4 3 6 8 7 6 5 8 6 5 6 7 7 6 6 6 9 7 11 11 8 7
Wind_Direction
331 331 329 335 341 340 350 313 267 195 124 142 221 252 303 277 82 111 252 272 350 49 41 13 1 48 53 64 34 358 76 45 285 266 287 284 297 287 29 145 266 279 206 246
330 328 331 338 344 8 319 311 274 253 119 238 236 27 325 281 354 46 9 23 59 72 69 43 355 29 107 80 41 41 348 13 332 309 301 35 48 334 343 121 84 219 239 272
327 326 332 336 339 341 319 286 296 345 177 248 283 269 194 254 87 124 58 18 44 337 294 144 223 348 84 123 91 99 50 277 204 220 289 322 294 291 291 210 232 254 241 276
321 324 330 334 336 324 282 244 286 2 328 8 343 13 320 315 138 58 66 302 240 79 19 9 331 45 355 46 152 123 113 196 301 299 305 300 287 281 270 268 264 236 267 263
316 320 332 337 337 328 210 306 356 344 293 303 328 270 260 262 85 48 97 36 44 56 37 293 304 351 15 268 133 76 51 288 0 286 273 267 270 262 258 254 258 264 274 275
315 319 328 341 345 339 318 352 326 303 292 310 310 288 79 60 59 279 49 33 15 7 36 355 336 304 255 233 220 104 120 121 307 250 329 328 307 255 257 258 255 251 263 306
315 318 322 342 349 360 304 298 287 312 292 307 330 318 71 36 65 14 4 339 4 45 356 329 296 250 242 243 246 191 157 164 141 270 314 255 247 308 295 300 19 358 29 41
314 316 323 328 347 344 287 301 326 345 295 331 330 351 194 119 108 288 272 60 54 18 346 314 309 259 166 235 219 209 181 136 206 230 203 287 297 330 6 51 29 21 27 21
314 313 314 305 340 348 298 311 328 287 307 66 338 320 33 32 48 339 100 81 59 20 279 271 272 290 336 139 58 72 174 161 171 173 224 248 297 17 335 77 228 20 16 345
315 319 317 319 345 344 318 313 333 307 292 38 10 18 349 17 15 16 20 8 37 8 326 255 250 248 301 300 134 173 111 41 218 238 260 274 329 331 62 260 212 313 346 344
322 324 327 345 328 331 324 293 303 344 319 311 333 347 334 350 50 59 353 338 230 288 250 256 285 303 292 323 130 188 174 169 189 187 233 257 34 360 357 265 299 323 351 16
320 322 314 308 300 308 324 276 58 9 193 297 319 281 279 275 319 166 173 329 347 329 5 351 320 295 325 328 285 343 294 191 210 185 222 285 283 218 31 36 17 346 357 339
325 322 318 319 320 306 300 319 108 59 10 280 225 253 269 230 223 204 152 178 29 6 38 5 254 263 330 287 273 314 318 79 179 350 267 335 2 88 56 343 293 298 321 311
315 310 315 327 320 320 311 262 204 170 95 278 283 1 309 326 189 183 155 133 76 58 47 55 342 276 278 284 284 296 254 294 233 251 274 299 98 199 139 272 283 313 298 336
303 306 308 302 299 308 289 236 213 217 212 310 303 309 263 242 225 156 128 114 108 116 111 154 227 268 286 292 270 263 243 266 65 274 324 274 275 356 4 340 300 275 317 317
303 303 310 311 318 336 299 295 170 195 172 251 307 319 275 187 148 133 143 144 113 104 126 185 239 265 216 261 268 268 136 181 164 203 223 272 338 327 300 278 272 288 334 276
304 299 299 305 307 296 258 338 312 160 103 99 281 269 267 144 128 124 119 116 126 110 174 221 246 256 177 254 249 277 304 305 281 104 43 325 277 276 278 270 348 342 322 11
288 299 295 278 273 280 287 179 142 98 82 51 269 267 270 68 140 116 70 95 89 170 178 210 230 244 176 250 248 261 267 20 67 6 289 247 263 296 337 18 2 6 360 20
309 335 333 229 258 191 111 134 117 51 177 214 226 262 186 139 65 96 90 85 178 159 222 225 231 219 225 231 249 340 58 99 28 300 302 356 8 354 0 359 11 5 21 39
317 277 273 62 315 109 110 43 74 31 355 248 245 303 279 171 170 120 120 147 217 228 214 221 222 253 249 257 232 147 129 58 351 329 332 23 3 349 339 13 21 25 47 29
218 104 56 348 309 55 13 124 209 170 231 201 227 226 254 12 353 109 182 168 191 261 168 242 214 244 32 21 153 96 97 266 283 289 53 35 8 337 20 29 22 51 51 21
48 108 95 43 31 246 230 193 195 206 244 176 204 147 115 39 35 107 156 219 173 248 145 243 254 130 118 74 74 126 235 262 36 51 34 13 15 26 48 27 48 51 57 25
55 54 152 209 158 223 231 197 197 212 206 162 122 84 69 51 40 78 127 226 234 132 200 228 126 143 85 139 268 246 79 58 49 34 33 24 19 42 48 44 46 57 44 20
247 201 217 230 183 236 214 137 308 76 95 94 95 78 62 99 171 119 230 241 256 238 226 100 158 107 151 209 53 68 61 60 36 50 31 20 42 47 49 66 38 47 44 8
266 250 251 223 244 267 134 230 125 88 108 107 102 88 108 142 223 209 237 233 235 294 89 130 154 173 83 81 64 56 64 55 35 52 18 51 43 45 45 66 27 41 56 8
253 237 271 266 298 7 53 123 106 105 102 108 143 133 187 202 226 216 226 271 22 121 107 116 146 99 89 76 69 66 76 52 69 50 43 58 37 46 38 72 30 25 71 41
250 248 235 252 267 235 246 144 134 102 157 126 121 191 221 207 228 207 175 203 132 233 120 112 99 99 95 95 90 86 79 58 80 68 46 79 45 63 35 83 33 23 32 95